AFL1710 UUEE-UHHH

Flight info

Callsign AFL1710
Flight time 7h 10m
Altitude 35000
Route OLMUN3H OLMUN T629 IPSIL T830 LAMGU N604 PIGUR T580 LITUN N869 ADIMA N992 LIMKI/K0893F370 N992 DIDEK DIDEK6D
Aircraft B77W/H-SDE1E2E3FGHIJ2J3J4J5M1RWXY/LB1D1

Departure

Time 2026-04-24 11:44
Airport Sheremetyevo International Airport (UUEE)

Arrival

Time 2026-04-24 18:54
Airport Khabarovsk Novy Airport (UHHH)
Time Latitude Longitude Altitude Speed Heading
2026-04-24 10:34 55.97348 37.38942 645 ft 0 kts 345°
2026-04-24 11:28 55.97345 37.38943 645 ft 2 kts 345°
2026-04-24 11:28 55.97331 37.38950 645 ft 2 kts 345°
2026-04-24 11:28 55.97316 37.38954 645 ft 2 kts 10°
2026-04-24 11:28 55.97303 37.38945 645 ft 2 kts 41°
2026-04-24 11:29 55.97293 37.38924 645 ft 1 kts 70°
2026-04-24 11:29 55.97292 37.38913 645 ft 1 kts 75°
2026-04-24 11:29 55.97292 37.38912 645 ft 0 kts 75°
2026-04-24 11:33 55.97292 37.38916 645 ft 1 kts 75°
2026-04-24 11:33 55.97297 37.38947 645 ft 4 kts 73°
2026-04-24 11:33 55.97307 37.39008 645 ft 5 kts 73°
2026-04-24 11:33 55.97299 37.39082 645 ft 7 kts 129°
2026-04-24 11:34 55.97251 37.39127 645 ft 6 kts 145°
2026-04-24 11:34 55.97240 37.39215 645 ft 8 kts 81°
2026-04-24 11:34 55.97257 37.39328 645 ft 9 kts 75°
2026-04-24 11:34 55.97274 37.39448 645 ft 10 kts 75°
2026-04-24 11:35 55.97295 37.39584 645 ft 12 kts 74°
2026-04-24 11:35 55.97320 37.39748 645 ft 14 kts 75°
2026-04-24 11:35 55.97348 37.39932 645 ft 16 kts 74°
2026-04-24 11:35 55.97380 37.40129 645 ft 17 kts 75°
2026-04-24 11:36 55.97409 37.40344 645 ft 18 kts 75°
2026-04-24 11:36 55.97442 37.40573 645 ft 19 kts 75°
2026-04-24 11:36 55.97479 37.40815 645 ft 19 kts 75°
2026-04-24 11:36 55.97513 37.41039 645 ft 17 kts 75°
2026-04-24 11:37 55.97542 37.41235 645 ft 15 kts 75°
2026-04-24 11:37 55.97570 37.41425 645 ft 15 kts 75°
2026-04-24 11:37 55.97600 37.41617 645 ft 16 kts 75°
2026-04-24 11:37 55.97628 37.41811 645 ft 16 kts 75°
2026-04-24 11:38 55.97658 37.42011 645 ft 16 kts 74°
2026-04-24 11:38 55.97688 37.42210 645 ft 16 kts 75°
2026-04-24 11:38 55.97718 37.42415 645 ft 17 kts 74°
2026-04-24 11:38 55.97749 37.42621 645 ft 17 kts 75°
2026-04-24 11:39 55.97780 37.42826 645 ft 17 kts 74°
2026-04-24 11:39 55.97812 37.43035 645 ft 17 kts 74°
2026-04-24 11:39 55.97842 37.43244 645 ft 17 kts 76°
2026-04-24 11:39 55.97874 37.43457 645 ft 17 kts 75°
2026-04-24 11:40 55.97906 37.43670 645 ft 17 kts 75°
2026-04-24 11:40 55.97936 37.43870 645 ft 11 kts 74°
2026-04-24 11:40 55.97950 37.43973 645 ft 5 kts 91°
2026-04-24 11:40 55.97925 37.44025 645 ft 0 kts 155°
2026-04-24 11:42 55.97915 37.44033 645 ft 5 kts 158°
2026-04-24 11:42 55.97854 37.44064 645 ft 10 kts 166°
2026-04-24 11:42 55.97811 37.44083 645 ft 4 kts 167°
2026-04-24 11:43 55.97789 37.44073 645 ft 2 kts 219°
2026-04-24 11:43 55.97781 37.44051 645 ft 1 kts 255°
2026-04-24 11:43 55.97769 37.43964 645 ft 22 kts 256°
2026-04-24 11:43 55.97671 37.43272 645 ft 92 kts 256°
2026-04-24 11:44 55.97446 37.41773 645 ft 153 kts 255°
2026-04-24 11:44 55.97128 37.39662 798 ft 192 kts 259°
2026-04-24 11:44 55.96775 37.37357 1444 ft 199 kts 259°
2026-04-24 11:44 55.96413 37.35058 2270 ft 195 kts 260°
2026-04-24 11:45 55.96037 37.32636 2654 ft 212 kts 261°
2026-04-24 11:45 55.95645 37.30144 3426 ft 209 kts 261°
2026-04-24 11:45 55.95253 37.27634 3981 ft 218 kts 261°
2026-04-24 11:45 55.94827 37.24889 4408 ft 236 kts 260°
2026-04-24 11:46 55.94377 37.22009 4892 ft 253 kts 259°
2026-04-24 11:46 55.93889 37.18899 5451 ft 267 kts 259°
2026-04-24 11:46 55.93381 37.15691 6246 ft 272 kts 259°
2026-04-24 11:46 55.92867 37.12464 7059 ft 275 kts 258°
2026-04-24 11:47 55.92350 37.09220 7886 ft 279 kts 258°
2026-04-24 11:47 55.91864 37.05862 8670 ft 279 kts 267°
2026-04-24 11:47 55.91934 37.02479 9431 ft 276 kts 287°
2026-04-24 11:47 55.92662 36.99351 10047 ft 280 kts 306°
2026-04-24 11:48 55.94000 36.96742 10407 ft 293 kts 325°
2026-04-24 11:48 55.95687 36.94698 11160 ft 297 kts 328°
2026-04-24 11:48 55.97523 36.93002 11895 ft 300 kts 343°
2026-04-24 11:48 55.99561 36.92498 12562 ft 306 kts
2026-04-24 11:49 56.01654 36.93338 13214 ft 314 kts 22°
2026-04-24 11:49 56.03624 36.95225 13645 ft 329 kts 30°
2026-04-24 11:49 56.05605 36.97468 13995 ft 347 kts 32°
2026-04-24 11:49 56.07658 36.99913 14367 ft 363 kts 35°
2026-04-24 11:50 56.09594 37.02918 14771 ft 380 kts 45°
2026-04-24 11:50 56.11282 37.06639 15366 ft 391 kts 55°
2026-04-24 11:50 56.12583 37.10908 16211 ft 395 kts 65°
2026-04-24 11:50 56.13466 37.15605 17054 ft 400 kts 73°
2026-04-24 11:51 56.14148 37.20404 17844 ft 404 kts 74°
2026-04-24 11:51 56.14831 37.25302 18606 ft 408 kts 74°
2026-04-24 11:51 56.15512 37.30267 19349 ft 413 kts 76°
2026-04-24 11:51 56.15875 37.35377 20017 ft 421 kts 86°
2026-04-24 11:52 56.15822 37.40620 20668 ft 428 kts 90°
2026-04-24 11:52 56.15667 37.45969 21318 ft 433 kts 91°
2026-04-24 11:52 56.15502 37.51407 21930 ft 440 kts 91°
2026-04-24 11:52 56.15333 37.56948 22517 ft 446 kts 92°
2026-04-24 11:53 56.15160 37.62569 23156 ft 450 kts 92°
2026-04-24 11:53 56.14986 37.68131 23810 ft 454 kts 93°
2026-04-24 11:53 56.14807 37.73812 24450 ft 458 kts 93°
2026-04-24 11:53 56.14625 37.79488 25012 ft 462 kts 92°
2026-04-24 11:54 56.14439 37.85269 25571 ft 465 kts 93°
2026-04-24 11:54 56.14249 37.91034 26144 ft 467 kts 92°
2026-04-24 11:54 56.14057 37.96818 26632 ft 470 kts 92°
2026-04-24 11:54 56.13860 38.02678 27078 ft 474 kts 92°
2026-04-24 11:55 56.13660 38.08537 27500 ft 477 kts 92°
2026-04-24 11:55 56.13452 38.14532 27915 ft 481 kts 92°
2026-04-24 11:55 56.13245 38.20461 28312 ft 485 kts 92°
2026-04-24 11:55 56.13030 38.26494 28717 ft 489 kts 91°
2026-04-24 11:56 56.12810 38.32592 29201 ft 490 kts 91°
2026-04-24 11:56 56.12587 38.38674 29777 ft 488 kts 91°
2026-04-24 11:56 56.12365 38.44667 30357 ft 485 kts 91°
2026-04-24 11:56 56.12140 38.50647 30805 ft 483 kts 91°
2026-04-24 11:57 56.11912 38.56638 31163 ft 484 kts 91°
2026-04-24 11:57 56.11682 38.62609 31513 ft 485 kts 91°
2026-04-24 11:57 56.11447 38.68668 31861 ft 486 kts 91°
2026-04-24 11:57 56.11210 38.74652 32203 ft 487 kts 91°
2026-04-24 11:58 56.10969 38.80682 32550 ft 487 kts 91°
2026-04-24 11:58 56.10726 38.86680 32884 ft 486 kts 91°
2026-04-24 11:58 56.10480 38.92679 33248 ft 486 kts 91°
2026-04-24 11:58 56.10231 38.98693 33676 ft 485 kts 91°
2026-04-24 11:59 56.09980 39.04679 34085 ft 485 kts 91°
2026-04-24 11:59 56.09726 39.10682 34441 ft 486 kts 91°
2026-04-24 11:59 56.09204 39.22779 34510 ft 488 kts 92°
2026-04-24 12:00 56.08673 39.34787 34509 ft 485 kts 92°
2026-04-24 12:00 56.08273 39.46780 34502 ft 482 kts 85°
2026-04-24 12:01 56.09455 39.58421 34508 ft 478 kts 68°
2026-04-24 12:01 56.12458 39.68932 34526 ft 474 kts 55°
2026-04-24 12:02 56.16079 39.78719 34526 ft 476 kts 55°
2026-04-24 12:02 56.19694 39.88664 34528 ft 478 kts 56°
2026-04-24 12:03 56.23281 39.98666 34526 ft 478 kts 56°
2026-04-24 12:03 56.26854 40.08719 34526 ft 480 kts 56°
2026-04-24 12:04 56.30423 40.18830 34521 ft 480 kts 56°
2026-04-24 12:04 56.33964 40.28917 34520 ft 481 kts 56°
2026-04-24 12:05 56.37537 40.39147 34518 ft 482 kts 56°
2026-04-24 12:05 56.41068 40.49303 34521 ft 482 kts 56°
2026-04-24 12:06 56.44610 40.59584 34516 ft 483 kts 59°
2026-04-24 12:06 56.47094 40.70849 34525 ft 486 kts 73°
2026-04-24 12:07 56.48888 40.82565 34516 ft 485 kts 74°
2026-04-24 12:07 56.50660 40.94334 34515 ft 485 kts 74°
2026-04-24 12:08 56.52401 41.06009 34507 ft 485 kts 74°
2026-04-24 12:08 56.54141 41.17777 34494 ft 486 kts 74°
2026-04-24 12:09 56.55871 41.29572 34491 ft 486 kts 74°
2026-04-24 12:09 56.57592 41.41396 34488 ft 485 kts 74°
2026-04-24 12:10 56.59292 41.53160 34489 ft 487 kts 75°
2026-04-24 12:11 56.61843 41.70985 34491 ft 488 kts 76°
2026-04-24 12:11 56.63521 41.82826 34492 ft 487 kts 76°
2026-04-24 12:12 56.65194 41.94721 34494 ft 488 kts 76°
2026-04-24 12:12 56.66857 42.06636 34491 ft 487 kts 76°
2026-04-24 12:13 56.68502 42.18514 34489 ft 488 kts 76°
2026-04-24 12:13 56.70146 42.30471 34491 ft 488 kts 76°
2026-04-24 12:14 56.71765 42.42344 34493 ft 487 kts 76°
2026-04-24 12:14 56.73386 42.54326 34486 ft 488 kts 76°
2026-04-24 12:15 56.75219 42.66151 34477 ft 488 kts 73°
2026-04-24 12:15 56.77179 42.77970 34478 ft 489 kts 73°
2026-04-24 12:16 56.79114 42.89797 34476 ft 490 kts 74°
2026-04-24 12:16 56.81040 43.01706 34482 ft 489 kts 74°
2026-04-24 12:17 56.82933 43.13520 34476 ft 489 kts 74°
2026-04-24 12:17 56.84817 43.25369 34476 ft 489 kts 74°
2026-04-24 12:18 56.86702 43.37324 34475 ft 489 kts 74°
2026-04-24 12:18 56.88560 43.49189 34473 ft 489 kts 74°
2026-04-24 12:19 56.90422 43.61170 34474 ft 490 kts 74°
2026-04-24 12:19 56.92262 43.73099 34473 ft 492 kts 75°
2026-04-24 12:20 56.94104 43.85120 34469 ft 492 kts 75°
2026-04-24 12:20 56.95935 43.97160 34462 ft 491 kts 75°
2026-04-24 12:21 56.97752 44.09198 34460 ft 491 kts 75°
2026-04-24 12:21 56.99551 44.21203 34462 ft 492 kts 75°
2026-04-24 12:22 57.01345 44.33266 34460 ft 492 kts 76°
2026-04-24 12:22 57.03123 44.45309 34462 ft 493 kts 76°
2026-04-24 12:23 57.04899 44.57426 34463 ft 493 kts 76°
2026-04-24 12:23 57.06662 44.69549 34462 ft 494 kts 77°
2026-04-24 12:24 57.08412 44.81678 34462 ft 493 kts 77°
2026-04-24 12:24 57.10157 44.93859 34461 ft 493 kts 77°
2026-04-24 12:25 57.11877 45.05964 34457 ft 492 kts 77°
2026-04-24 12:25 57.13598 45.18172 34455 ft 492 kts 77°
2026-04-24 12:26 57.15300 45.30329 34460 ft 493 kts 77°
2026-04-24 12:26 57.16989 45.42498 34463 ft 493 kts 77°
2026-04-24 12:27 57.18672 45.54720 34466 ft 493 kts 77°
2026-04-24 12:27 57.20340 45.66929 34465 ft 493 kts 78°
2026-04-24 12:28 57.21999 45.79169 34469 ft 494 kts 78°
2026-04-24 12:28 57.23647 45.91424 34473 ft 493 kts 78°
2026-04-24 12:29 57.25276 46.03640 34465 ft 494 kts 78°
2026-04-24 12:29 57.26895 46.15881 34472 ft 494 kts 78°
2026-04-24 12:30 57.28510 46.28192 34476 ft 493 kts 78°
2026-04-24 12:30 57.30107 46.40469 34472 ft 494 kts 78°
2026-04-24 12:31 57.31697 46.52795 34465 ft 493 kts 79°
2026-04-24 12:31 57.33266 46.65058 34471 ft 493 kts 79°
2026-04-24 12:32 57.34887 46.77317 34461 ft 494 kts 75°
2026-04-24 12:32 57.37594 46.89086 34466 ft 498 kts 68°
2026-04-24 12:33 57.40471 47.00707 34471 ft 498 kts 68°
2026-04-24 12:33 57.43308 47.12315 34473 ft 499 kts 68°
2026-04-24 12:34 57.46134 47.24000 34481 ft 498 kts 68°
2026-04-24 12:34 57.48949 47.35728 34483 ft 499 kts 68°
2026-04-24 12:35 57.51761 47.47510 34489 ft 499 kts 68°
2026-04-24 12:35 57.54549 47.59244 34494 ft 500 kts 68°
2026-04-24 12:36 57.57336 47.71043 34491 ft 499 kts 69°
2026-04-24 12:36 57.60098 47.82806 34489 ft 499 kts 69°
2026-04-24 12:37 57.62874 47.94694 34499 ft 499 kts 69°
2026-04-24 12:37 57.65624 48.06538 34491 ft 499 kts 69°
2026-04-24 12:38 57.68344 48.18320 34485 ft 499 kts 69°
2026-04-24 12:38 57.71069 48.30184 34489 ft 498 kts 69°
2026-04-24 12:39 57.76496 48.54012 34494 ft 500 kts 69°
2026-04-24 12:40 57.79196 48.65945 34497 ft 501 kts 70°
2026-04-24 12:40 57.81898 48.77956 34507 ft 499 kts 70°
2026-04-24 12:41 57.84572 48.89909 34515 ft 499 kts 70°
2026-04-24 12:41 57.87226 49.01844 34517 ft 499 kts 70°
2026-04-24 12:42 57.89864 49.13770 34521 ft 499 kts 70°
2026-04-24 12:42 57.92515 49.25829 34520 ft 499 kts 70°
2026-04-24 12:43 57.95143 49.37851 34521 ft 500 kts 70°
2026-04-24 12:43 57.97761 49.49897 34529 ft 500 kts 70°
2026-04-24 12:44 58.00378 49.62007 34525 ft 501 kts 70°
2026-04-24 12:44 58.02980 49.74119 34525 ft 499 kts 71°
2026-04-24 12:45 58.05559 49.86194 34529 ft 499 kts 71°
2026-04-24 12:45 58.08128 49.98299 34526 ft 500 kts 71°
2026-04-24 12:46 58.10705 50.10509 34517 ft 501 kts 71°
2026-04-24 12:46 58.13260 50.22684 34516 ft 500 kts 71°
2026-04-24 12:47 58.16222 50.36891 34526 ft 501 kts 71°
2026-04-24 12:47 58.18341 50.47086 34523 ft 500 kts 70°
2026-04-24 12:48 58.20865 50.59291 34527 ft 501 kts 70°
2026-04-24 12:48 58.23391 50.71582 34530 ft 501 kts 71°
2026-04-24 12:49 58.25886 50.83798 34531 ft 501 kts 71°
2026-04-24 12:49 58.28392 50.96143 34533 ft 501 kts 71°
2026-04-24 12:50 58.30880 51.08474 34538 ft 499 kts 71°
2026-04-24 12:50 58.33347 51.20781 34545 ft 500 kts 71°
2026-04-24 12:51 58.35800 51.33087 34545 ft 500 kts 71°
2026-04-24 12:51 58.38248 51.45438 34547 ft 501 kts 71°
2026-04-24 12:52 58.40691 51.57841 34552 ft 501 kts 71°
2026-04-24 12:52 58.43167 51.70160 34556 ft 502 kts 70°
2026-04-24 12:53 58.45798 51.82504 34558 ft 502 kts 70°
2026-04-24 12:53 58.48397 51.94797 34560 ft 501 kts 70°
2026-04-24 12:54 58.50987 52.07153 34563 ft 501 kts 70°
2026-04-24 12:54 58.53542 52.19430 34574 ft 502 kts 70°
2026-04-24 12:55 58.56109 52.31838 34579 ft 501 kts 70°
2026-04-24 12:55 58.58645 52.44180 34575 ft 501 kts 70°
2026-04-24 12:56 58.61181 52.56599 34574 ft 502 kts 70°
2026-04-24 12:56 58.63696 52.68991 34576 ft 502 kts 71°
2026-04-24 12:57 58.66213 52.81459 34578 ft 502 kts 71°
2026-04-24 12:57 58.68715 52.93903 34585 ft 502 kts 71°
2026-04-24 12:58 58.71207 53.06377 34575 ft 503 kts 71°
2026-04-24 12:58 58.73692 53.18888 34578 ft 501 kts 71°
2026-04-24 12:59 58.76164 53.31419 34591 ft 502 kts 71°
2026-04-24 12:59 58.78619 53.43942 34596 ft 502 kts 71°
2026-04-24 13:00 58.81060 53.56469 34595 ft 502 kts 71°
2026-04-24 13:00 58.83479 53.68972 34598 ft 502 kts 72°
2026-04-24 13:01 58.85902 53.81568 34592 ft 502 kts 72°
2026-04-24 13:01 58.88116 53.94273 34591 ft 502 kts 75°
2026-04-24 13:02 58.90184 54.07088 34595 ft 501 kts 75°
2026-04-24 13:02 58.92264 54.19991 34598 ft 502 kts 75°
2026-04-24 13:03 58.94314 54.32754 34593 ft 501 kts 75°
2026-04-24 13:03 58.96378 54.45670 34594 ft 501 kts 74°
2026-04-24 13:04 58.98413 54.58490 34608 ft 501 kts 74°
2026-04-24 13:04 59.00437 54.71326 34607 ft 500 kts 75°
2026-04-24 13:05 59.02464 54.84248 34615 ft 501 kts 75°
2026-04-24 13:05 59.04458 54.97055 34617 ft 501 kts 75°
2026-04-24 13:06 59.06459 55.10001 34614 ft 501 kts 75°
2026-04-24 13:06 59.08441 55.22892 34619 ft 501 kts 75°
2026-04-24 13:07 59.10419 55.35835 34618 ft 501 kts 75°
2026-04-24 13:07 59.12382 55.48789 34611 ft 501 kts 75°
2026-04-24 13:08 59.14333 55.61769 34612 ft 502 kts 75°
2026-04-24 13:08 59.16277 55.74783 34620 ft 501 kts 76°
2026-04-24 13:09 59.19171 55.94327 34633 ft 502 kts 76°
2026-04-24 13:09 59.21075 56.07312 34631 ft 503 kts 76°
2026-04-24 13:10 59.22981 56.20421 34640 ft 503 kts 76°
2026-04-24 13:10 59.24860 56.33443 34645 ft 503 kts 76°
2026-04-24 13:11 59.26740 56.46578 34641 ft 502 kts 76°
2026-04-24 13:11 59.28604 56.59708 34646 ft 502 kts 76°
2026-04-24 13:12 59.30448 56.72812 34650 ft 503 kts 77°
2026-04-24 13:12 59.32290 56.86000 34649 ft 503 kts 77°
2026-04-24 13:13 59.34106 56.99117 34652 ft 503 kts 77°
2026-04-24 13:13 59.35925 57.12383 34655 ft 503 kts 77°
2026-04-24 13:14 59.37548 57.25623 34657 ft 503 kts 78°
2026-04-24 13:14 59.39138 57.38880 34664 ft 503 kts 78°
2026-04-24 13:15 59.40727 57.52202 34664 ft 504 kts 78°
2026-04-24 13:15 59.42315 57.65612 34667 ft 504 kts 79°
2026-04-24 13:16 59.43878 57.78923 34669 ft 503 kts 79°
2026-04-24 13:16 59.45430 57.92256 34673 ft 503 kts 79°
2026-04-24 13:17 59.46969 58.05607 34674 ft 503 kts 79°
2026-04-24 13:17 59.48494 58.18957 34678 ft 504 kts 79°
2026-04-24 13:18 59.50004 58.32308 34683 ft 504 kts 79°
2026-04-24 13:18 59.51509 58.45740 34688 ft 505 kts 79°
2026-04-24 13:19 59.53001 58.59199 34688 ft 504 kts 79°
2026-04-24 13:19 59.54478 58.72653 34683 ft 504 kts 80°
2026-04-24 13:20 59.55936 58.86083 34673 ft 504 kts 80°
2026-04-24 13:20 59.57393 58.99629 34664 ft 505 kts 80°
2026-04-24 13:21 59.58832 59.13128 34666 ft 504 kts 80°
2026-04-24 13:21 59.60272 59.26603 34681 ft 505 kts 80°
2026-04-24 13:22 59.61700 59.40118 34693 ft 504 kts 80°
2026-04-24 13:22 59.63105 59.53550 34706 ft 505 kts 80°
2026-04-24 13:23 59.64513 59.67159 34709 ft 505 kts 81°
2026-04-24 13:23 59.65897 59.80686 34707 ft 506 kts 81°
2026-04-24 13:24 59.67271 59.94264 34711 ft 505 kts 81°
2026-04-24 13:24 59.68629 60.07825 34712 ft 505 kts 81°
2026-04-24 13:25 59.69971 60.21395 34719 ft 505 kts 81°
2026-04-24 13:25 59.71308 60.35059 34719 ft 505 kts 81°
2026-04-24 13:26 59.72621 60.48626 34721 ft 505 kts 81°
2026-04-24 13:26 59.73920 60.62210 34723 ft 505 kts 81°
2026-04-24 13:27 59.75214 60.75897 34721 ft 505 kts 81°
2026-04-24 13:27 59.76485 60.89508 34727 ft 505 kts 81°
2026-04-24 13:28 59.77747 61.03176 34728 ft 505 kts 81°
2026-04-24 13:28 59.78990 61.16805 34739 ft 506 kts 82°
2026-04-24 13:29 59.80225 61.30515 34738 ft 507 kts 81°
2026-04-24 13:29 59.81441 61.44179 34737 ft 505 kts 81°
2026-04-24 13:30 59.82648 61.57920 34738 ft 506 kts 81°
2026-04-24 13:30 59.83837 61.71620 34739 ft 506 kts 82°
2026-04-24 13:31 59.85016 61.85369 34739 ft 506 kts 82°
2026-04-24 13:31 59.86179 61.99126 34741 ft 507 kts 82°
2026-04-24 13:32 59.87328 62.12894 34745 ft 507 kts 82°
2026-04-24 13:32 59.88465 62.26693 34755 ft 508 kts 82°
2026-04-24 13:33 59.89587 62.40495 34747 ft 507 kts 82°
2026-04-24 13:33 59.90702 62.54228 34747 ft 506 kts 82°
2026-04-24 13:34 59.91815 62.68061 34752 ft 507 kts 83°
2026-04-24 13:34 59.92912 62.81897 34753 ft 507 kts 83°
2026-04-24 13:35 59.93991 62.95707 34762 ft 508 kts 83°
2026-04-24 13:35 59.95059 63.09572 34767 ft 508 kts 83°
2026-04-24 13:36 59.96113 63.23453 34771 ft 508 kts 83°
2026-04-24 13:36 59.97150 63.37322 34774 ft 508 kts 83°
2026-04-24 13:37 59.98177 63.51245 34775 ft 507 kts 82°
2026-04-24 13:37 59.99181 63.65073 34787 ft 507 kts 83°
2026-04-24 13:38 60.00172 63.78936 34775 ft 508 kts 83°
2026-04-24 13:38 60.01158 63.92930 34782 ft 508 kts 83°
2026-04-24 13:39 60.02480 64.06680 34792 ft 509 kts 76°
2026-04-24 13:39 60.04222 64.20425 34791 ft 509 kts 76°
2026-04-24 13:40 60.05902 64.34077 34796 ft 510 kts 77°
2026-04-24 13:40 60.07558 64.47850 34799 ft 511 kts 77°
2026-04-24 13:41 60.09192 64.61677 34791 ft 510 kts 77°
2026-04-24 13:41 60.10793 64.75427 34781 ft 511 kts 78°
2026-04-24 13:42 60.11347 64.89484 34780 ft 507 kts 95°
2026-04-24 13:42 60.10791 65.03501 34782 ft 506 kts 97°
2026-04-24 13:43 60.10179 65.17458 34773 ft 506 kts 97°
2026-04-24 13:43 60.09541 65.31540 34786 ft 508 kts 97°
2026-04-24 13:44 60.08889 65.45563 34790 ft 507 kts 97°
2026-04-24 13:44 60.08223 65.59519 34803 ft 508 kts 97°
2026-04-24 13:45 60.07537 65.73569 34816 ft 508 kts 98°
2026-04-24 13:45 60.06837 65.87590 34804 ft 508 kts 97°
2026-04-24 13:46 60.06121 66.01601 34811 ft 508 kts 98°
2026-04-24 13:46 60.05395 66.15543 34812 ft 508 kts 97°
2026-04-24 13:47 60.04650 66.29543 34818 ft 509 kts 98°
2026-04-24 13:47 60.03888 66.43569 34820 ft 509 kts 97°
2026-04-24 13:48 60.03108 66.57663 34821 ft 510 kts 97°
2026-04-24 13:48 60.02312 66.71711 34818 ft 510 kts 98°
2026-04-24 13:49 60.01498 66.85731 34818 ft 510 kts 98°
2026-04-24 13:49 60.00673 66.99662 34818 ft 510 kts 98°
2026-04-24 13:50 59.99826 67.13724 34824 ft 511 kts 98°
2026-04-24 13:50 59.98966 67.27733 34822 ft 511 kts 98°
2026-04-24 13:51 59.98090 67.41771 34833 ft 510 kts 98°
2026-04-24 13:51 59.97199 67.55795 34841 ft 510 kts 98°
2026-04-24 13:52 59.96292 67.69823 34842 ft 511 kts 99°
2026-04-24 13:52 59.95379 67.83730 34841 ft 510 kts 99°
2026-04-24 13:53 59.94438 67.97804 34841 ft 513 kts 99°
2026-04-24 13:53 59.93491 68.11749 34841 ft 514 kts 99°
2026-04-24 13:54 59.92520 68.25819 34837 ft 514 kts 99°
2026-04-24 13:54 59.91530 68.39935 34840 ft 514 kts 99°
2026-04-24 13:55 59.90530 68.53908 34843 ft 515 kts 99°
2026-04-24 13:55 59.89503 68.68027 34847 ft 514 kts 99°
2026-04-24 13:56 59.88470 68.82025 34840 ft 515 kts 100°
2026-04-24 13:56 59.87417 68.96075 34847 ft 515 kts 99°
2026-04-24 13:57 59.86347 69.10149 34851 ft 516 kts 99°
2026-04-24 13:57 59.85266 69.24165 34864 ft 517 kts 99°
2026-04-24 13:58 59.84165 69.38236 34861 ft 517 kts 99°
2026-04-24 13:58 59.83051 69.52269 34862 ft 517 kts 99°
2026-04-24 13:59 59.81921 69.66327 34863 ft 517 kts 100°
2026-04-24 13:59 59.80780 69.80366 34864 ft 518 kts 100°
2026-04-24 14:00 59.79623 69.94421 34870 ft 517 kts 100°
2026-04-24 14:00 59.78448 70.08493 34867 ft 519 kts 100°
2026-04-24 14:01 59.77259 70.22545 34890 ft 517 kts 100°
2026-04-24 14:01 59.76064 70.36479 34871 ft 517 kts 100°
2026-04-24 14:02 59.74849 70.50468 34866 ft 518 kts 100°
2026-04-24 14:02 59.73613 70.64512 34873 ft 518 kts 100°
2026-04-24 14:03 59.72372 70.78431 34866 ft 519 kts 101°
2026-04-24 14:03 59.71107 70.92452 34867 ft 520 kts 101°
2026-04-24 14:04 59.69826 71.06463 34875 ft 520 kts 101°
2026-04-24 14:04 59.68534 71.20432 34875 ft 519 kts 101°
2026-04-24 14:05 59.67223 71.34419 34886 ft 519 kts 101°
2026-04-24 14:05 59.65901 71.48371 34881 ft 519 kts 101°
2026-04-24 14:06 59.64563 71.62315 34873 ft 519 kts 101°
2026-04-24 14:06 59.63207 71.76282 34877 ft 518 kts 102°
2026-04-24 14:07 59.61839 71.90218 34865 ft 520 kts 102°
2026-04-24 14:07 59.60451 72.04176 34877 ft 520 kts 102°
2026-04-24 14:08 59.59051 72.18111 34874 ft 520 kts 102°
2026-04-24 14:08 59.57635 72.32043 34864 ft 521 kts 102°
2026-04-24 14:09 59.56203 72.45971 34872 ft 522 kts 102°
2026-04-24 14:09 59.54752 72.59933 34871 ft 521 kts 102°
2026-04-24 14:10 59.53290 72.73837 34862 ft 521 kts 102°
2026-04-24 14:10 59.51814 72.87727 34855 ft 522 kts 102°
2026-04-24 14:11 59.50313 73.01698 34864 ft 522 kts 103°
2026-04-24 14:12 59.48044 73.22546 34873 ft 523 kts 102°
2026-04-24 14:12 59.46520 73.36361 34871 ft 522 kts 103°
2026-04-24 14:13 59.44970 73.50266 34881 ft 521 kts 103°
2026-04-24 14:13 59.43402 73.64187 34871 ft 523 kts 102°
2026-04-24 14:14 59.41824 73.78054 34863 ft 523 kts 103°
2026-04-24 14:14 59.39430 73.98823 34874 ft 525 kts 103°
2026-04-24 14:15 59.37808 74.12720 34881 ft 524 kts 103°
2026-04-24 14:15 59.36173 74.26586 34883 ft 523 kts 103°
2026-04-24 14:16 59.34528 74.40399 34885 ft 524 kts 103°
2026-04-24 14:17 59.32161 74.61241 34883 ft 525 kts 101°
2026-04-24 14:17 59.29995 74.82079 34882 ft 525 kts 102°
2026-04-24 14:18 59.28517 74.96020 34874 ft 525 kts 102°
2026-04-24 14:18 59.27023 75.09910 34886 ft 526 kts 102°
2026-04-24 14:19 59.25503 75.23880 34881 ft 526 kts 103°
2026-04-24 14:19 59.23975 75.37760 34881 ft 525 kts 102°
2026-04-24 14:20 59.22432 75.51623 34885 ft 527 kts 102°
2026-04-24 14:20 59.20864 75.65557 34881 ft 526 kts 103°
2026-04-24 14:21 59.19297 75.79349 34881 ft 527 kts 103°
2026-04-24 14:21 59.17698 75.93259 34874 ft 528 kts 103°
2026-04-24 14:22 59.16072 76.07211 34877 ft 527 kts 103°
2026-04-24 14:23 59.13619 76.27989 34868 ft 526 kts 103°
2026-04-24 14:23 59.11974 76.41757 34880 ft 527 kts 103°
2026-04-24 14:24 59.10307 76.55604 34867 ft 527 kts 103°
2026-04-24 14:24 59.08630 76.69460 34868 ft 527 kts 104°
2026-04-24 14:25 59.06945 76.83250 34863 ft 528 kts 104°
2026-04-24 14:25 59.05230 76.97140 34861 ft 528 kts 104°
2026-04-24 14:26 59.03509 77.10946 34850 ft 528 kts 104°
2026-04-24 14:26 59.01781 77.24679 34851 ft 528 kts 104°
2026-04-24 14:27 59.00030 77.38460 34862 ft 528 kts 104°
2026-04-24 14:27 58.98272 77.52179 34863 ft 527 kts 104°
2026-04-24 14:28 58.96491 77.65936 34862 ft 528 kts 105°
2026-04-24 14:28 58.94696 77.79683 34841 ft 528 kts 105°
2026-04-24 14:29 58.92880 77.93459 34850 ft 528 kts 105°
2026-04-24 14:29 58.91057 78.07167 34837 ft 529 kts 105°
2026-04-24 14:30 58.89214 78.20895 34849 ft 529 kts 105°
2026-04-24 14:30 58.87362 78.34574 34854 ft 527 kts 105°
2026-04-24 14:31 58.85489 78.48283 34856 ft 528 kts 105°
2026-04-24 14:31 58.83620 78.61844 34845 ft 528 kts 105°
2026-04-24 14:32 58.81720 78.75515 34846 ft 528 kts 106°
2026-04-24 14:32 58.79807 78.89157 34842 ft 529 kts 106°
2026-04-24 14:33 58.77884 79.02753 34849 ft 527 kts 106°
2026-04-24 14:33 58.75948 79.16323 34866 ft 528 kts 106°
2026-04-24 14:34 58.73992 79.29922 34866 ft 528 kts 106°
2026-04-24 14:34 58.72029 79.43449 34861 ft 528 kts 106°
2026-04-24 14:35 58.70041 79.57039 34867 ft 530 kts 106°
2026-04-24 14:35 58.68500 79.70792 34862 ft 529 kts 95°
2026-04-24 14:36 58.68594 79.84900 34851 ft 530 kts 86°
2026-04-24 14:36 58.68930 79.98901 34847 ft 530 kts 86°
2026-04-24 14:37 58.69228 80.13042 34844 ft 529 kts 87°
2026-04-24 14:37 58.69494 80.27078 34847 ft 528 kts 87°
2026-04-24 14:38 58.69736 80.41174 34854 ft 528 kts 87°
2026-04-24 14:38 58.69958 80.55288 34844 ft 529 kts 87°
2026-04-24 14:39 58.70161 80.69357 34852 ft 528 kts 88°
2026-04-24 14:39 58.70347 80.83398 34854 ft 529 kts 88°
2026-04-24 14:40 58.70518 80.97508 34844 ft 529 kts 88°
2026-04-24 14:40 58.70672 81.11541 34859 ft 529 kts 88°
2026-04-24 14:41 58.70808 81.25646 34855 ft 527 kts 88°
2026-04-24 14:41 58.70924 81.39654 34856 ft 528 kts 88°
2026-04-24 14:42 58.71027 81.53793 34869 ft 528 kts 88°
2026-04-24 14:42 58.71114 81.67886 34865 ft 528 kts 89°
2026-04-24 14:43 58.71185 81.81969 34875 ft 528 kts 89°
2026-04-24 14:43 58.71241 81.96014 34868 ft 528 kts 89°
2026-04-24 14:44 58.71281 82.10037 34877 ft 528 kts 89°
2026-04-24 14:44 58.71307 82.24122 34880 ft 529 kts 89°
2026-04-24 14:45 58.71316 82.38271 34880 ft 528 kts 89°
2026-04-24 14:45 58.71311 82.52305 34891 ft 530 kts 89°
2026-04-24 14:46 58.71290 82.66480 34883 ft 528 kts 90°
2026-04-24 14:46 58.71254 82.80509 34863 ft 529 kts 90°
2026-04-24 14:47 58.71202 82.94628 34867 ft 528 kts 90°
2026-04-24 14:47 58.71136 83.08694 34876 ft 528 kts 90°
2026-04-24 14:48 58.71054 83.22746 34874 ft 528 kts 90°
2026-04-24 14:48 58.70957 83.36730 34889 ft 528 kts 90°
2026-04-24 14:49 58.70844 83.50841 34888 ft 528 kts 90°
2026-04-24 14:49 58.70715 83.64937 34872 ft 527 kts 90°
2026-04-24 14:50 58.70571 83.79047 34885 ft 527 kts 91°
2026-04-24 14:50 58.70413 83.93063 34888 ft 527 kts 91°
2026-04-24 14:51 58.70239 84.07114 34885 ft 528 kts 91°
2026-04-24 14:51 58.70051 84.21100 34883 ft 527 kts 91°
2026-04-24 14:52 58.69846 84.35155 34897 ft 528 kts 91°
2026-04-24 14:52 58.69627 84.49173 34899 ft 528 kts 91°
2026-04-24 14:53 58.69391 84.63312 34884 ft 527 kts 91°
2026-04-24 14:53 58.69141 84.77288 34906 ft 527 kts 92°
2026-04-24 14:54 58.68876 84.91348 34897 ft 527 kts 92°
2026-04-24 14:54 58.68595 85.05357 34897 ft 528 kts 92°
2026-04-24 14:55 58.68299 85.19408 34898 ft 527 kts 92°
2026-04-24 14:55 58.67986 85.33473 34914 ft 528 kts 92°
2026-04-24 14:56 58.67660 85.47498 34924 ft 527 kts 92°
2026-04-24 14:56 58.67320 85.61441 34924 ft 528 kts 92°
2026-04-24 14:57 58.66963 85.75462 34925 ft 528 kts 93°
2026-04-24 14:57 58.66591 85.89490 34913 ft 527 kts 93°
2026-04-24 14:58 58.66203 86.03492 34930 ft 528 kts 93°
2026-04-24 14:58 58.65801 86.17499 34914 ft 526 kts 93°
2026-04-24 14:59 58.65383 86.31496 34921 ft 526 kts 93°
2026-04-24 14:59 58.64953 86.45421 34920 ft 526 kts 93°
2026-04-24 15:00 58.64506 86.59369 34928 ft 525 kts 93°
2026-04-24 15:00 58.64045 86.73297 34929 ft 526 kts 94°
2026-04-24 15:01 58.63777 86.87337 34930 ft 526 kts 91°
2026-04-24 15:01 58.63555 87.01360 34935 ft 527 kts 91°
2026-04-24 15:02 58.63311 87.15337 34935 ft 526 kts 91°
2026-04-24 15:02 58.63045 87.29343 34938 ft 526 kts 92°
2026-04-24 15:03 58.62764 87.43213 34948 ft 526 kts 92°
2026-04-24 15:03 58.62464 87.57230 34954 ft 526 kts 92°
2026-04-24 15:04 58.62149 87.71188 34953 ft 525 kts 93°
2026-04-24 15:04 58.61819 87.85090 34961 ft 525 kts 92°
2026-04-24 15:05 58.61477 87.99073 34961 ft 525 kts 92°
2026-04-24 15:05 58.61196 88.13014 34967 ft 525 kts 92°
2026-04-24 15:06 58.60903 88.26962 34971 ft 524 kts 92°
2026-04-24 15:06 58.60594 88.40873 34978 ft 524 kts 92°
2026-04-24 15:07 58.60271 88.54703 34980 ft 525 kts 92°
2026-04-24 15:07 58.59930 88.68604 34977 ft 523 kts 93°
2026-04-24 15:08 58.59574 88.82481 34976 ft 523 kts 93°
2026-04-24 15:08 58.59203 88.96348 34978 ft 523 kts 92°
2026-04-24 15:09 58.58818 89.10183 34984 ft 523 kts 93°
2026-04-24 15:09 58.58414 89.24133 34989 ft 523 kts 93°
2026-04-24 15:10 58.57999 89.37960 34993 ft 523 kts 93°
2026-04-24 15:10 58.57568 89.51814 35000 ft 522 kts 93°
2026-04-24 15:11 58.57123 89.65646 35009 ft 523 kts 94°
2026-04-24 15:11 58.56663 89.79457 35000 ft 522 kts 94°
2026-04-24 15:12 58.56186 89.93343 35003 ft 522 kts 94°
2026-04-24 15:12 58.55448 90.14020 35013 ft 522 kts 94°
2026-04-24 15:13 58.54938 90.27792 35011 ft 521 kts 93°
2026-04-24 15:13 58.54411 90.41621 35017 ft 521 kts 94°
2026-04-24 15:14 58.53870 90.55394 35024 ft 521 kts 94°
2026-04-24 15:14 58.53312 90.69244 35019 ft 521 kts 94°
2026-04-24 15:15 58.52742 90.83019 35020 ft 521 kts 94°
2026-04-24 15:15 58.52165 90.96686 35022 ft 521 kts 94°
2026-04-24 15:16 58.51574 91.10448 35025 ft 520 kts 94°
2026-04-24 15:16 58.50966 91.24266 35023 ft 521 kts 94°
2026-04-24 15:17 58.50348 91.37960 35023 ft 520 kts 94°
2026-04-24 15:17 58.49711 91.51717 35025 ft 521 kts 94°
2026-04-24 15:18 58.49062 91.65443 35029 ft 521 kts 95°
2026-04-24 15:18 58.48395 91.79216 35032 ft 521 kts 95°
2026-04-24 15:19 58.47714 91.92974 35041 ft 521 kts 95°
2026-04-24 15:19 58.47023 92.06646 35041 ft 521 kts 95°
2026-04-24 15:20 58.46751 92.20470 35046 ft 520 kts 88°
2026-04-24 15:20 58.46822 92.34179 35041 ft 519 kts 88°
2026-04-24 15:21 58.46875 92.47952 35049 ft 519 kts 88°
2026-04-24 15:21 58.46909 92.61678 35051 ft 520 kts 88°
2026-04-24 15:22 58.46925 92.75445 35038 ft 518 kts 89°
2026-04-24 15:23 58.46919 92.95962 35021 ft 518 kts 89°
2026-04-24 15:23 58.46879 93.16589 35012 ft 518 kts 89°
2026-04-24 15:25 58.46738 93.50848 35029 ft 518 kts 89°
2026-04-24 15:26 58.46506 93.85042 35007 ft 516 kts 89°
2026-04-24 15:27 58.46108 94.25934 35016 ft 514 kts 89°
2026-04-24 15:29 58.45582 94.66714 35000 ft 513 kts 90°
2026-04-24 15:31 58.44807 95.14153 35005 ft 511 kts 90°
2026-04-24 15:33 58.43463 95.68113 35000 ft 509 kts 91°
2026-04-24 15:34 58.42494 96.01686 34979 ft 509 kts 92°
2026-04-24 15:35 58.41441 96.35145 34997 ft 505 kts 91°
2026-04-24 15:36 58.40998 96.48467 34991 ft 506 kts 92°
2026-04-24 15:36 58.40312 96.68445 34988 ft 505 kts 92°
2026-04-24 15:37 58.39838 96.81753 34986 ft 504 kts 92°
2026-04-24 15:37 58.39350 96.95046 34993 ft 504 kts 92°
2026-04-24 15:38 58.38852 97.08269 34976 ft 503 kts 92°
2026-04-24 15:38 58.38337 97.21545 34988 ft 504 kts 92°
2026-04-24 15:39 58.37807 97.34867 34980 ft 503 kts 92°
2026-04-24 15:39 58.37415 97.48124 34955 ft 503 kts 90°
2026-04-24 15:40 58.37114 97.61309 34946 ft 502 kts 90°
2026-04-24 15:40 58.36789 97.74555 34945 ft 502 kts 91°
2026-04-24 15:41 58.36444 97.87825 34949 ft 502 kts 91°
2026-04-24 15:41 58.36082 98.01092 34929 ft 502 kts 91°
2026-04-24 15:42 58.35709 98.14223 34911 ft 500 kts 91°
2026-04-24 15:42 58.35318 98.27496 34903 ft 500 kts 91°
2026-04-24 15:43 58.34918 98.40588 34913 ft 501 kts 91°
2026-04-24 15:43 58.34500 98.53813 34922 ft 501 kts 92°
2026-04-24 15:44 58.34068 98.67030 34909 ft 502 kts 92°
2026-04-24 15:44 58.33623 98.80246 34895 ft 501 kts 92°
2026-04-24 15:45 58.33165 98.93405 34914 ft 500 kts 92°
2026-04-24 15:45 58.32695 99.06545 34905 ft 500 kts 92°
2026-04-24 15:46 58.32212 99.19656 34888 ft 499 kts 92°
2026-04-24 15:46 58.31714 99.32836 34891 ft 499 kts 92°
2026-04-24 15:47 58.31205 99.45915 34880 ft 498 kts 92°
2026-04-24 15:47 58.30683 99.58975 34893 ft 498 kts 92°
2026-04-24 15:48 58.30149 99.72025 34893 ft 497 kts 94°
2026-04-24 15:48 58.29597 99.85176 34890 ft 498 kts 94°
2026-04-24 15:49 58.29038 99.98161 34879 ft 498 kts 94°
2026-04-24 15:49 58.28462 100.11237 34891 ft 496 kts 94°
2026-04-24 15:50 58.27876 100.24246 34879 ft 496 kts 94°
2026-04-24 15:50 58.27274 100.37295 34887 ft 495 kts 94°
2026-04-24 15:51 58.26666 100.50186 34911 ft 495 kts 94°
2026-04-24 15:51 58.26041 100.63155 34876 ft 495 kts 94°
2026-04-24 15:52 58.25400 100.76199 34893 ft 495 kts 95°
2026-04-24 15:52 58.24750 100.89118 34866 ft 493 kts 95°
2026-04-24 15:53 58.24086 101.02090 34863 ft 493 kts 95°
2026-04-24 15:53 58.23413 101.14957 34866 ft 493 kts 95°
2026-04-24 15:54 58.22724 101.27882 34874 ft 492 kts 95°
2026-04-24 15:54 58.22049 101.40726 34864 ft 493 kts 95°
2026-04-24 15:55 58.21374 101.53682 34876 ft 493 kts 95°
2026-04-24 15:55 58.20690 101.66535 34871 ft 491 kts 96°
2026-04-24 15:56 58.19990 101.79444 34883 ft 492 kts 96°
2026-04-24 15:56 58.19280 101.92273 34922 ft 492 kts 96°
2026-04-24 15:57 58.18558 102.05078 34913 ft 492 kts 96°
2026-04-24 15:57 58.17822 102.17904 34877 ft 490 kts 96°
2026-04-24 15:58 58.17070 102.30769 34884 ft 490 kts 96°
2026-04-24 15:58 58.16308 102.43568 34895 ft 490 kts 96°
2026-04-24 15:59 58.15535 102.56342 34874 ft 490 kts 96°
2026-04-24 15:59 58.14778 102.69179 34917 ft 495 kts 95°
2026-04-24 16:00 58.14471 102.75603 35258 ft 496 kts 95°
2026-04-24 16:00 58.14164 102.82032 35740 ft 491 kts 95°
2026-04-24 16:00 58.13852 102.88441 36124 ft 489 kts 95°
2026-04-24 16:00 58.13537 102.94814 36419 ft 489 kts 95°
2026-04-24 16:01 58.13213 103.01274 36642 ft 492 kts 95°
2026-04-24 16:01 58.12888 103.07700 36834 ft 495 kts 95°
2026-04-24 16:01 58.12219 103.20657 36883 ft 496 kts 95°
2026-04-24 16:02 58.11539 103.33516 36889 ft 494 kts 95°
2026-04-24 16:02 58.10840 103.46489 36882 ft 494 kts 95°
2026-04-24 16:03 58.10134 103.59339 36897 ft 495 kts 95°
2026-04-24 16:03 58.09414 103.72197 36895 ft 494 kts 96°
2026-04-24 16:04 58.08683 103.85021 36899 ft 493 kts 96°
2026-04-24 16:04 58.07933 103.97942 36886 ft 494 kts 96°
2026-04-24 16:05 58.06792 104.17155 36907 ft 494 kts 96°
2026-04-24 16:06 58.05615 104.36477 36921 ft 495 kts 95°
2026-04-24 16:07 58.04414 104.55710 36921 ft 495 kts 95°
2026-04-24 16:07 58.03178 104.75014 36919 ft 494 kts 96°
2026-04-24 16:08 58.01917 104.94235 36911 ft 494 kts 96°
2026-04-24 16:09 58.00625 105.13485 36912 ft 495 kts 96°
2026-04-24 16:09 57.99745 105.26344 36920 ft 495 kts 96°
2026-04-24 16:11 57.97503 105.58262 36948 ft 495 kts 96°
2026-04-24 16:11 57.96579 105.71079 36942 ft 495 kts 97°
2026-04-24 16:12 57.95169 105.90300 36943 ft 495 kts 96°
2026-04-24 16:13 57.93724 106.09584 36948 ft 496 kts 96°
2026-04-24 16:14 57.91762 106.35144 36952 ft 496 kts 96°
2026-04-24 16:14 57.90248 106.54392 36954 ft 497 kts 96°
2026-04-24 16:15 57.88705 106.73641 36947 ft 497 kts 97°
2026-04-24 16:16 57.87138 106.92806 36939 ft 498 kts 97°
2026-04-24 16:17 57.84452 107.24830 36954 ft 498 kts 97°
2026-04-24 16:18 57.82244 107.50427 36963 ft 498 kts 96°
2026-04-24 16:19 57.80555 107.69597 36974 ft 499 kts 97°
2026-04-24 16:20 57.78838 107.88742 36991 ft 500 kts 97°
2026-04-24 16:20 57.76946 108.07840 37013 ft 500 kts 102°
2026-04-24 16:21 57.74168 108.26622 37031 ft 501 kts 103°
2026-04-24 16:22 57.72276 108.39113 37022 ft 501 kts 103°
2026-04-24 16:22 57.69400 108.57855 37011 ft 501 kts 103°
2026-04-24 16:23 57.67464 108.70341 37016 ft 503 kts 104°
2026-04-24 16:24 57.64528 108.89078 37027 ft 503 kts 104°
2026-04-24 16:24 57.62550 109.01582 37029 ft 502 kts 104°
2026-04-24 16:25 57.60567 109.14026 37031 ft 503 kts 104°
2026-04-24 16:25 57.58572 109.26462 37035 ft 504 kts 103°
2026-04-24 16:26 57.55589 109.45174 37023 ft 504 kts 103°
2026-04-24 16:27 57.52584 109.63850 36993 ft 504 kts 103°
2026-04-24 16:27 57.50565 109.76286 36946 ft 504 kts 104°
2026-04-24 16:28 57.48520 109.88782 36925 ft 504 kts 104°
2026-04-24 16:28 57.45452 110.07363 36931 ft 506 kts 104°
2026-04-24 16:29 57.43388 110.19752 36970 ft 505 kts 104°
2026-04-24 16:30 57.39205 110.44606 36988 ft 505 kts 104°
2026-04-24 16:30 57.37094 110.57018 36987 ft 506 kts 104°
2026-04-24 16:31 57.34972 110.69402 36993 ft 505 kts 104°
2026-04-24 16:31 57.32832 110.81815 36991 ft 507 kts 104°
2026-04-24 16:32 57.30693 110.94135 36995 ft 508 kts 104°
2026-04-24 16:32 57.28525 111.06530 36946 ft 509 kts 104°
2026-04-24 16:33 57.26349 111.18895 36956 ft 506 kts 104°
2026-04-24 16:33 57.24173 111.31175 36958 ft 507 kts 104°
2026-04-24 16:34 57.21963 111.43564 36982 ft 507 kts 104°
2026-04-24 16:34 57.19755 111.55854 36975 ft 507 kts 104°
2026-04-24 16:35 57.17503 111.68157 37012 ft 510 kts 105°
2026-04-24 16:35 57.15210 111.80490 36977 ft 509 kts 105°
2026-04-24 16:36 57.12904 111.92825 37021 ft 507 kts 106°
2026-04-24 16:36 57.10615 112.04995 37038 ft 509 kts 105°
2026-04-24 16:37 57.08306 112.17194 37012 ft 507 kts 105°
2026-04-24 16:37 57.05969 112.29466 37007 ft 508 kts 105°
2026-04-24 16:38 57.03642 112.41607 36980 ft 507 kts 105°
2026-04-24 16:38 57.01292 112.53793 36951 ft 506 kts 105°
2026-04-24 16:39 56.98950 112.65864 36953 ft 507 kts 106°
2026-04-24 16:39 56.96563 112.78085 36958 ft 506 kts 106°
2026-04-24 16:40 56.94210 112.90060 36966 ft 505 kts 106°
2026-04-24 16:40 56.91826 113.02121 36985 ft 504 kts 106°
2026-04-24 16:41 56.89428 113.14177 36952 ft 502 kts 106°
2026-04-24 16:41 56.87033 113.26148 36925 ft 505 kts 106°
2026-04-24 16:42 56.84629 113.38081 36916 ft 500 kts 106°
2026-04-24 16:42 56.82205 113.50054 36890 ft 502 kts 106°
2026-04-24 16:43 56.79797 113.61871 36901 ft 503 kts 107°
2026-04-24 16:43 56.77358 113.73769 36930 ft 501 kts 107°
2026-04-24 16:44 56.74910 113.85643 36956 ft 501 kts 107°
2026-04-24 16:44 56.72457 113.97468 36943 ft 502 kts 107°
2026-04-24 16:45 56.69989 114.09294 36945 ft 499 kts 107°
2026-04-24 16:45 56.67528 114.21025 36931 ft 500 kts 108°
2026-04-24 16:46 56.65045 114.32790 36943 ft 499 kts 108°
2026-04-24 16:46 56.62550 114.44544 36954 ft 500 kts 107°
2026-04-24 16:47 56.60056 114.56222 36957 ft 499 kts 108°
2026-04-24 16:47 56.57537 114.67953 36955 ft 499 kts 108°
2026-04-24 16:48 56.55019 114.79614 36975 ft 498 kts 108°
2026-04-24 16:48 56.52492 114.91250 36962 ft 498 kts 108°
2026-04-24 16:49 56.49944 115.02914 36949 ft 498 kts 108°
2026-04-24 16:49 56.47403 115.14486 36995 ft 497 kts 108°
2026-04-24 16:50 56.44849 115.26045 37059 ft 497 kts 108°
2026-04-24 16:50 56.42274 115.37643 37061 ft 497 kts 108°
2026-04-24 16:51 56.39715 115.49102 37051 ft 497 kts 109°
2026-04-24 16:51 56.37134 115.60596 37049 ft 495 kts 108°
2026-04-24 16:52 56.34542 115.72076 37048 ft 494 kts 109°
2026-04-24 16:52 56.31939 115.83543 37050 ft 494 kts 109°
2026-04-24 16:53 56.29353 115.94874 37047 ft 493 kts 109°
2026-04-24 16:53 56.26737 116.06275 37036 ft 494 kts 109°
2026-04-24 16:54 56.24125 116.17595 36992 ft 492 kts 109°
2026-04-24 16:54 56.21492 116.28951 36941 ft 492 kts 109°
2026-04-24 16:55 56.18850 116.40281 36961 ft 491 kts 109°
2026-04-24 16:55 56.16213 116.51532 37000 ft 491 kts 110°
2026-04-24 16:56 56.13575 116.62725 36974 ft 490 kts 110°
2026-04-24 16:56 56.10903 116.74010 36934 ft 491 kts 110°
2026-04-24 16:57 56.08243 116.85181 36905 ft 490 kts 111°
2026-04-24 16:57 56.05563 116.96380 36872 ft 491 kts 111°
2026-04-24 16:58 56.02879 117.07539 36844 ft 490 kts 111°
2026-04-24 16:58 56.00191 117.18652 36846 ft 489 kts 111°
2026-04-24 16:59 55.97484 117.29792 36859 ft 488 kts 111°
2026-04-24 17:00 55.93435 117.46349 36861 ft 488 kts 111°
2026-04-24 17:00 55.89373 117.62829 36852 ft 486 kts 111°
2026-04-24 17:01 55.85271 117.79352 36854 ft 485 kts 112°
2026-04-24 17:02 55.81156 117.95719 36861 ft 486 kts 112°
2026-04-24 17:02 55.78376 118.06692 36857 ft 486 kts 112°
2026-04-24 17:03 55.74266 118.22961 36837 ft 483 kts 111°
2026-04-24 17:04 55.71528 118.33813 36823 ft 484 kts 112°
2026-04-24 17:04 55.67397 118.50075 36833 ft 482 kts 112°
2026-04-24 17:05 55.64652 118.60816 36831 ft 482 kts 112°
2026-04-24 17:06 55.60487 118.77010 36817 ft 484 kts 113°
2026-04-24 17:06 55.56302 118.93161 36828 ft 482 kts 113°
2026-04-24 17:07 55.53693 119.03983 36835 ft 481 kts 110°
2026-04-24 17:08 55.48674 119.25745 36827 ft 480 kts 110°
2026-04-24 17:08 55.46143 119.36571 36841 ft 479 kts 110°
2026-04-24 17:09 55.40818 119.57975 36854 ft 480 kts 114°
2026-04-24 17:10 55.34963 119.79001 36875 ft 479 kts 115°
2026-04-24 17:12 55.23265 120.20757 36869 ft 477 kts 115°
2026-04-24 18:54 48.53561 135.19604 255 ft 42 kts 41°
2026-04-24 18:55 48.53882 135.20039 245 ft 10 kts 41°
2026-04-24 18:55 48.53924 135.20114 244 ft 8 kts 76°
2026-04-24 18:55 48.53903 135.20198 244 ft 9 kts 131°
2026-04-24 18:56 48.53860 135.20265 245 ft 8 kts 134°
2026-04-24 18:56 48.53818 135.20331 245 ft 8 kts 134°
2026-04-24 18:56 48.53769 135.20378 244 ft 8 kts 177°
2026-04-24 18:56 48.53715 135.20337 244 ft 9 kts 222°
2026-04-24 18:57 48.53666 135.20268 244 ft 9 kts 222°
2026-04-24 18:57 48.53616 135.20201 245 ft 9 kts 222°
2026-04-24 18:57 48.53569 135.20136 246 ft 10 kts 222°
2026-04-24 18:57 48.53505 135.20047 247 ft 14 kts 222°
2026-04-24 18:58 48.53419 135.19931 250 ft 19 kts 221°
2026-04-24 18:58 48.53309 135.19785 253 ft 23 kts 221°
2026-04-24 18:58 48.53177 135.19603 256 ft 28 kts 221°
2026-04-24 18:58 48.53028 135.19402 256 ft 28 kts 222°
2026-04-24 18:59 48.52884 135.19205 255 ft 27 kts 222°
2026-04-24 18:59 48.52742 135.19009 252 ft 27 kts 221°
2026-04-24 18:59 48.52600 135.18817 249 ft 27 kts 222°
2026-04-24 18:59 48.52461 135.18628 248 ft 26 kts 222°
2026-04-24 19:00 48.52327 135.18448 249 ft 25 kts 223°
2026-04-24 19:00 48.52203 135.18277 251 ft 23 kts 222°
2026-04-24 19:00 48.52119 135.18161 253 ft 10 kts 222°
2026-04-24 19:00 48.52106 135.18100 254 ft 5 kts 288°
2026-04-24 19:01 48.52129 135.18056 255 ft 5 kts 313°
2026-04-24 19:01 48.52167 135.17993 258 ft 10 kts 311°
2026-04-24 19:01 48.52215 135.17912 261 ft 8 kts 311°
2026-04-24 19:01 48.52251 135.17850 263 ft 8 kts 311°
2026-04-24 19:02 48.52292 135.17781 264 ft 8 kts 311°
2026-04-24 19:02 48.52326 135.17725 267 ft 6 kts 311°
2026-04-24 19:02 48.52349 135.17686 268 ft 3 kts 311°
2026-04-24 19:02 48.52356 135.17674 269 ft 0 kts 311°
2026-04-24 19:03 48.52366 135.17656 270 ft 7 kts 311°
2026-04-24 19:03 48.52417 135.17572 275 ft 11 kts 311°
2026-04-24 19:03 48.52462 135.17496 279 ft 7 kts 311°
2026-04-24 19:03 48.52493 135.17444 283 ft 5 kts 311°
2026-04-24 19:04 48.52506 135.17398 284 ft 5 kts 262°
2026-04-24 19:04 48.52476 135.17335 283 ft 8 kts 224°
2026-04-24 19:04 48.52445 135.17287 282 ft 5 kts 243°
2026-04-24 19:04 48.52443 135.17233 282 ft 4 kts 282°
2026-04-24 19:05 48.52454 135.17198 283 ft 2 kts 308°
2026-04-24 19:05 48.52460 135.17188 284 ft 1 kts 310°
2026-04-24 19:05 48.52465 135.17178 284 ft 0 kts 310°
2026-04-24 19:05 48.52466 135.17177 284 ft 0 kts 311°